Date String (YYYY-MM-DD hh:mm:ss) UTC,Instrument flags,Ambient pressure (hPa),Sample flow (lpm),Bypass flow (lpm),Sample temperature (°C),Ambient temperature (°C),ASC tube jacket temperature (°C),LED temperature (°C),Box temperature (°C),Sample RH (%),Span deviation,Mass concentration (μg/m³),Mass concentration (μg/m³),Mass concentration (μg/m³)
DateTimeUTC,F1_M11,P_M11,Q1_M11,Q2_M11,T1_M11,T2_M11,T3_M11,T4_M11,T5_M11,U1_M11,ZSPAN_M11,X0_M11,X2_M11,X1_M11
2023-01-25 05:00:00,,0824.7,5.00,0.00,22.5,21.0,00.0,31.2,24.2,09.5,-002.3,0016.03,0011.11,0010.56
2023-01-25 05:01:00,,0824.7,4.98,0.00,22.4,20.9,00.0,31.2,24.2,09.5,-002.2,0015.55,0011.09,0010.54
2023-01-25 05:02:00,,0824.6,5.01,0.00,22.4,20.8,00.0,31.2,24.1,09.6,-002.2,0015.98,0011.05,0010.51
2023-01-25 05:03:00,,0824.7,5.00,0.00,22.4,20.8,00.0,31.2,24.1,09.6,-002.2,0016.25,0011.00,0010.47
2023-01-25 05:04:00,,0824.7,5.00,0.00,22.4,20.7,00.0,31.2,24.0,09.6,-002.3,0016.37,0010.99,0010.46
2023-01-25 05:05:00,,0824.6,5.01,0.00,22.3,20.7,00.0,31.2,24.0,09.6,-002.3,0017.40,0011.03,0010.49
2023-01-25 05:06:00,,0824.7,5.01,0.00,22.3,20.6,00.0,31.2,23.9,09.5,-002.2,0017.67,0011.01,0010.51
2023-01-25 05:07:00,,0824.7,5.01,0.00,22.3,20.8,00.0,31.2,24.0,09.5,-002.2,0017.58,0010.98,0010.48
2023-01-25 05:08:00,,0824.7,4.98,0.00,22.3,21.7,00.0,31.2,24.2,09.4,-002.2,0017.49,0010.91,0010.43
2023-01-25 05:09:00,,0824.6,5.00,0.00,22.4,22.6,00.0,31.2,24.4,09.3,-002.3,0017.65,0010.89,0010.39
2023-01-25 05:10:00,,0824.7,5.00,0.00,22.6,22.8,00.0,31.2,24.5,09.2,-002.2,0017.77,0010.82,0010.31
2023-01-25 05:11:00,,0824.6,4.99,0.00,22.6,22.4,00.0,31.2,24.5,09.3,-002.0,0017.72,0010.78,0010.25
2023-01-25 05:12:00,,0824.6,5.01,0.00,22.6,22.1,00.0,31.3,24.4,09.3,-001.7,0017.71,0010.79,0010.24
2023-01-25 05:13:00,,0824.7,5.00,0.00,22.6,21.7,00.0,31.3,24.4,09.3,-001.9,0017.24,0010.77,0010.22
2023-01-25 05:14:00,,0824.6,4.99,0.00,22.5,21.5,00.0,31.3,24.3,09.3,-001.9,0017.63,0010.77,0010.21
2023-01-25 05:15:00,,0824.7,5.01,0.00,22.5,21.2,00.0,31.3,24.3,09.4,-001.9,0017.94,0010.78,0010.21
2023-01-25 05:16:00,,0824.7,5.00,0.00,22.5,21.1,00.0,31.3,24.2,09.5,-002.1,0017.54,0010.82,0010.23
2023-01-25 05:17:00,,0824.7,5.01,0.00,22.5,21.0,00.0,31.3,24.2,09.7,-002.0,0017.33,0010.92,0010.30
2023-01-25 05:18:00,,0824.7,4.99,0.00,22.5,20.9,00.0,31.3,24.2,09.8,-001.8,0018.04,0011.02,0010.39
2023-01-25 05:19:00,,0824.6,5.01,0.00,22.5,20.9,00.0,31.2,24.2,09.8,-001.9,0019.02,0011.21,0010.52
2023-01-25 05:20:00,,0824.7,5.00,0.00,22.4,20.9,00.0,31.2,24.2,09.8,-001.9,0019.06,0011.34,0010.65
2023-01-25 05:21:00,,0824.7,5.02,0.00,22.4,20.9,00.0,31.2,24.1,09.8,-001.7,0019.05,0011.51,0010.79
2023-01-25 05:22:00,,0824.8,4.99,0.00,22.4,20.8,00.0,31.2,24.1,09.8,-001.7,0019.21,0011.63,0010.90
2023-01-25 05:23:00,,0824.8,5.00,0.00,22.4,20.8,00.0,31.2,24.1,09.8,-002.0,0019.34,0011.71,0010.98
2023-01-25 05:24:00,,0824.8,4.99,0.00,22.4,20.9,00.0,31.2,24.1,09.8,-002.0,0019.48,0011.82,0011.09
2023-01-25 05:25:00,,0824.9,5.01,0.00,22.4,21.7,00.0,31.2,24.2,09.8,-001.9,0019.00,0011.90,0011.18
2023-01-25 05:26:00,,0824.9,5.00,0.00,22.5,22.6,00.0,31.2,24.5,09.8,-001.9,0018.45,0011.98,0011.27
2023-01-25 05:27:00,,0824.9,5.00,0.00,22.6,22.9,00.0,31.2,24.6,09.8,-001.8,0018.15,0012.05,0011.33
2023-01-25 05:28:00,,0824.9,4.99,0.00,22.6,22.4,00.0,31.3,24.6,09.8,-001.9,0018.00,0012.06,0011.35
2023-01-25 05:29:00,,0824.9,5.01,0.00,22.6,22.1,00.0,31.3,24.5,09.9,-002.0,0017.60,0012.11,0011.40
2023-01-25 05:30:00,,0824.8,5.00,0.00,22.6,21.8,00.0,31.3,24.4,10.0,-001.8,0016.66,0012.13,0011.44
2023-01-25 05:31:00,,0824.8,5.00,0.00,22.6,21.5,00.0,31.3,24.4,10.1,-001.6,0016.70,0012.20,0011.51
2023-01-25 05:32:00,,0824.8,5.00,0.00,22.6,21.3,00.0,31.3,24.3,10.2,-001.8,0016.87,0012.31,0011.61
2023-01-25 05:33:00,,0824.8,5.01,0.00,22.6,21.2,00.0,31.3,24.3,10.2,-001.8,0016.92,0012.39,0011.72
2023-01-25 05:34:00,,0824.8,4.99,0.00,22.6,21.1,00.0,31.3,24.3,10.2,-001.7,0016.90,0012.43,0011.79
2023-01-25 05:35:00,,0824.8,5.00,0.00,22.6,21.0,00.0,31.3,24.3,10.3,-001.6,0017.03,0012.46,0011.83
2023-01-25 05:36:00,,0824.8,5.00,0.00,22.5,21.0,00.0,31.3,24.3,10.3,-001.7,0017.73,0012.56,0011.91
2023-01-25 05:37:00,,0824.8,5.00,0.00,22.5,20.9,00.0,31.3,24.2,10.3,-001.8,0017.95,0012.60,0011.95
2023-01-25 05:38:00,,0824.8,5.01,0.00,22.5,20.9,00.0,31.3,24.2,10.2,-001.7,0018.00,0012.62,0011.97
2023-01-25 05:39:00,,0824.7,5.00,0.00,22.5,20.9,00.0,31.3,24.2,10.2,-001.8,0018.16,0012.67,0012.02
2023-01-25 05:40:00,,0824.8,4.99,0.00,22.4,20.9,00.0,31.3,24.2,10.3,-001.6,0018.43,0012.68,0012.04
2023-01-25 05:41:00,,0824.7,5.01,0.00,22.5,21.3,00.0,31.3,24.2,10.2,-001.7,0018.49,0012.68,0012.03
2023-01-25 05:42:00,,0824.7,4.99,0.00,22.6,22.2,00.0,31.3,24.4,10.1,-001.8,0018.47,0012.60,0011.96
2023-01-25 05:43:00,,0824.7,4.99,0.00,22.7,23.0,00.0,31.3,24.6,10.1,-001.7,0018.60,0012.53,0011.89
2023-01-25 05:44:00,,0824.8,4.99,0.00,22.7,22.8,00.0,31.3,24.7,10.1,-001.7,0018.68,0012.52,0011.84
2023-01-25 05:45:00,,0824.6,5.02,0.00,22.7,22.4,00.0,31.4,24.6,10.0,-001.8,0019.48,0012.49,0011.81
2023-01-25 05:46:00,,0824.6,5.00,0.00,22.7,22.0,00.0,31.4,24.6,10.0,-001.8,0019.62,0012.47,0011.79
2023-01-25 05:47:00,,0824.6,4.99,0.00,22.7,21.7,00.0,31.4,24.5,10.1,-001.8,0019.33,0012.51,0011.80
2023-01-25 05:48:00,,0824.7,5.02,0.00,22.7,21.5,00.0,31.4,24.4,10.1,-001.8,0019.42,0012.52,0011.82
2023-01-25 05:49:00,,0824.6,4.99,0.00,22.7,21.3,00.0,31.4,24.4,10.2,-001.9,0019.37,0012.56,0011.89
2023-01-25 05:50:00,,0824.7,5.00,0.00,22.6,21.2,00.0,31.4,24.4,10.3,-001.9,0019.32,0012.57,0011.91
2023-01-25 05:51:00,,0824.7,4.99,0.00,22.6,21.1,00.0,31.4,24.3,10.4,-002.1,0019.03,0012.59,0011.92
2023-01-25 05:52:00,,0824.7,5.00,0.00,22.6,21.0,00.0,31.4,24.3,10.4,-002.1,0019.50,0012.62,0011.94
2023-01-25 05:53:00,,0824.6,5.01,0.00,22.6,21.0,00.0,31.4,24.3,10.4,-002.1,0019.77,0012.69,0012.01
2023-01-25 05:54:00,,0824.7,5.00,0.00,22.6,20.9,00.0,31.4,24.3,10.4,-002.3,0019.78,0012.73,0012.04
2023-01-25 05:55:00,,0824.7,4.99,0.00,22.5,20.9,00.0,31.4,24.2,09.9,-002.3,0019.62,0012.60,0011.95
2023-01-25 05:56:00,,0824.7,4.98,0.00,22.5,20.9,00.0,31.4,24.2,09.8,-002.3,0018.95,0012.45,0011.80
2023-01-25 05:57:00,,0824.7,5.01,0.00,22.5,20.7,00.0,31.3,24.1,09.9,-002.3,0018.65,0012.39,0011.72
2023-01-25 05:58:00,,0824.7,4.99,0.00,22.5,21.2,00.0,31.3,24.3,10.0,-002.2,0018.48,0012.31,0011.66
2023-01-25 05:59:00,,0824.8,5.00,0.00,22.6,22.2,00.0,31.3,24.4,10.1,-002.1,0018.01,0012.23,0011.59
